Simultaneous Nadir Overpasses (SNOs) Predictions

Prediction of SNOs between AQUA and NPP Satellite Orbit:

Table of predicted SNOs for the next 14.0 days since TLE Epoch: 7/7/2017
Index Date (AQUA) Time (AQUA) Lat,Lon (AQUA) SZA (AQUA ) Date (NPP) Time (NPP) Lat,Lon (NPP) SZA (NPP ) Distance(km) Time Diff (sec)
1 07/08/2017 21:48:55 -74.57, -92.09 102.75 07/08/2017 21:47:58 -74.57, -92.08 102.70 0.62 57
2 07/08/2017 22:38:00 75.57, 78.22 76.11 07/08/2017 22:38:21 75.56, 78.12 76.12 2.88 21
3 07/11/2017 14:05:13 -75.12, 25.20 103.02 07/11/2017 14:04:41 -75.13, 25.26 103.01 1.85 32
4 07/11/2017 14:54:19 76.06,-164.46 75.89 07/11/2017 14:55:05 76.05,-164.50 75.87 1.23 46
5 07/14/2017 06:21:41 -75.16, 141.19 102.68 07/14/2017 06:21:35 -75.15, 141.12 102.65 2.23 6
6 07/14/2017 07:10:39 76.48, -47.21 75.78 07/14/2017 07:11:50 76.48, -47.18 75.72 0.87 71
7 07/16/2017 21:48:59 74.21, 87.07 78.84 07/16/2017 21:48:02 74.20, 86.99 78.91 2.60 57
8 07/16/2017 22:37:57 -75.74,-101.29 102.92 07/16/2017 22:38:16 -75.74,-101.29 102.93 0.14 19
9 07/19/2017 14:05:15 74.86,-155.48 78.58 07/19/2017 14:04:43 74.86,-155.49 78.61 0.37 32




NCC Satellite Simultaneous Nadir Overpasses (SNOs) Prediction Service
